Change the Weather History Date:

Friday, May 10, 2013

  Actual Average Record
Temperature  
Mean Temperature 40 °F -  
Max Temperature 45 °F 62 °F 82 °F (1985)
Min Temperature 34 °F 42 °F 29 °F (1966)
Degree Days  
Heating Degree Days 24    
Moisture  
Dew Point 39 °F    
Average Humidity 93    
Maximum Humidity 100    
Minimum Humidity 86    
Precipitation  
Precipitation 0.56 in - - ()
Sea Level Pressure  
Sea Level Pressure 29.97 in    
Wind  
Wind Speed 16 mph (NNE)    
Max Wind Speed 24 mph    
Max Gust Speed 32 mph    
Visibility 9 miles    
Events Rain    
Averages and records for this station are not official NWS values.
T = Trace of Precipitation, MM = Missing Value Source: NWS Daily Summary

Daily Weather History Graph

Daily Weather History Graph

Search for Another Location

Airport or City:

Trip Planner

Search our weather history database for the weather conditions in past years. The results will help you decide how hot, cold, wet, or windy it might be!

Date:

Astronomy

May. 10, 2013 Rise Set
Actual Time 5:31 AM CDT 8:04 PM CDT
Civil Twilight 4:58 AM CDT 8:37 PM CDT
Nautical Twilight 4:17 AM CDT 9:18 PM CDT
Astronomical Twilight 3:31 AM CDT 10:05 PM CDT
Moon 5:55 AM CDT (5/10) 8:54 PM CDT (5/10)
Length of Visible Light 15h 38m
Length of Day
14h 33m
New Moon, 0% of the Moon is Illuminated
May 10
New Moon
May 17
First Quarter
May 24
Full
May 31
Last Quarter
Jun 8
New

Hourly Weather History & Observations

Time (CDT) Temp. Windchill Dew Point Humidity Pressure Visibility Wind Dir Wind Speed Gust Speed Precip Events Conditions
1:53 AM 42.1 °F 32.6 °F 41.0 °F 96% 29.93 in 9.0 mi NE 23.0 mph 28.8 mph 0.04 in Rain Light Rain
2:53 AM 42.1 °F 32.8 °F 41.0 °F 96% 29.91 in 7.0 mi NNE 21.9 mph 28.8 mph 0.03 in Rain Light Rain
3:53 AM 41.0 °F 32.5 °F 41.0 °F 100% 29.91 in 6.0 mi NNE 17.3 mph 26.5 mph 0.06 in Rain Rain
4:53 AM 41.0 °F 33.5 °F 41.0 °F 100% 29.91 in 6.0 mi NNE 13.8 mph 27.6 mph 0.12 in Rain Rain
5:53 AM 41.0 °F 32.5 °F 39.9 °F 96% 29.93 in 7.0 mi NNE 17.3 mph 27.6 mph 0.09 in Rain Light Rain
6:53 AM 41.0 °F 31.9 °F 39.0 °F 93% 29.94 in 5.0 mi NNE 19.6 mph 32.2 mph 0.13 in Rain Rain
7:53 AM 39.9 °F 29.5 °F 39.0 °F 97% 29.95 in 10.0 mi NNE 24.2 mph 29.9 mph 0.08 in Rain Light Rain
8:53 AM 41.0 °F 32.5 °F 39.0 °F 93% 29.96 in 10.0 mi NNE 17.3 mph 29.9 mph 0.01 in Rain Light Rain
9:53 AM 41.0 °F 33.5 °F 39.0 °F 93% 29.96 in 10.0 mi NNE 13.8 mph 27.6 mph 0.00 in   Overcast
10:53 AM 39.9 °F 32.9 °F 39.0 °F 97% 29.98 in 10.0 mi North 11.5 mph 20.7 mph N/A   Overcast
12:53 PM 41.0 °F 34.3 °F 39.0 °F 93% 30.00 in 10.0 mi North 11.5 mph - N/A   Overcast
1:53 PM 42.1 °F 35.2 °F 39.0 °F 89% 30.00 in 10.0 mi NNE 12.7 mph - N/A   Overcast
2:53 PM 43.0 °F 36.4 °F 39.9 °F 89% 30.00 in 10.0 mi NNE 12.7 mph 18.4 mph N/A   Overcast
3:06 PM 44.6 °F 39.2 °F 41.0 °F 87% 29.98 in 10.0 mi NNE 10.4 mph - N/A   Overcast
3:53 PM 45.0 °F 40.1 °F 41.0 °F 86% 29.99 in 10.0 mi NNE 9.2 mph - N/A   Overcast
4:53 PM 43.0 °F 36.8 °F 41.0 °F 93% 29.99 in 10.0 mi ENE 11.5 mph - N/A   Overcast
5:53 PM 43.0 °F 36.0 °F 39.9 °F 89% 29.99 in 10.0 mi NE 13.8 mph - N/A   Overcast
6:19 PM 42.8 °F 36.6 °F 39.2 °F 87% 29.97 in 10.0 mi NE 11.5 mph - N/A   Overcast
6:51 PM 42.8 °F 36.6 °F 39.2 °F 87% 29.97 in 10.0 mi ENE 11.5 mph - N/A   Overcast
6:53 PM 42.1 °F 35.2 °F 39.0 °F 89% 29.99 in 10.0 mi ENE 12.7 mph - N/A   Overcast
7:53 PM 39.9 °F 33.9 °F 37.0 °F 89% 29.99 in 10.0 mi NE 9.2 mph - N/A   Clear
8:53 PM 39.0 °F - 36.0 °F 89% 29.99 in 10.0 mi Calm Calm - N/A   Clear
9:53 PM 36.0 °F - 36.0 °F 100% 30.00 in 10.0 mi Calm Calm - N/A   Clear
10:53 PM 36.0 °F - 35.1 °F 97% 29.99 in 10.0 mi Calm Calm - N/A   Clear
11:53 PM 34.0 °F 29.8 °F 34.0 °F 100% 29.97 in 10.0 mi West 4.6 mph - N/A   Clear